Theta_e
345 342 341 343 346 343 346 345 345 348 349 349 348 348 349 349 349 349 348 349 350 349 349 349 350 350 350 351 351 351 351 351 350 352 351 351 351 351 350 350 349 348 349
343 342 340 341 342 342 343 345 342 343 349 349 349 348 349 350 350 350 350 349 350 348 348 348 351 350 349 350 350 350 352 351 351 350 350 347 348 348 348 350 350 348 346
344 343 342 341 341 340 339 339 340 346 345 350 349 349 351 351 351 351 351 351 350 346 347 349 350 350 350 351 348 346 350 350 350 351 351 348 345 344 348 348 350 350 348
345 344 342 340 341 338 338 344 345 348 344 348 349 350 351 351 351 349 350 349 344 336 343 347 350 351 351 352 351 351 352 351 350 350 351 351 350 346 348 347 349 348 350
344 344 342 341 340 339 341 344 348 349 349 350 350 352 352 352 350 340 344 342 347 342 350 350 351 350 352 353 354 353 353 354 353 353 352 351 351 351 347 347 346 348 348
344 343 343 342 342 343 342 344 351 351 351 351 353 352 352 350 347 345 347 351 351 351 351 351 352 351 352 352 354 355 354 353 353 353 352 352 351 350 348 346 346 346 351
344 342 343 343 343 345 344 346 353 353 352 353 354 354 352 352 351 352 352 351 350 350 349 344 343 345 345 346 347 348 352 352 351 351 351 351 351 351 351 349 348 347 350
345 341 342 346 345 347 344 347 355 353 352 354 354 354 353 352 351 349 351 348 344 344 343 340 339 338 338 339 341 343 345 346 344 345 348 348 350 351 351 351 350 348 345
346 344 341 344 347 348 346 353 357 354 355 354 353 351 350 349 348 343 342 340 335 333 331 329 328 328 330 332 334 336 338 338 339 340 341 344 345 346 348 350 351 348 348
350 348 347 348 349 349 351 355 355 355 353 352 349 345 342 340 337 333 331 330 330 330 330 330 331 331 331 331 332 333 334 335 336 337 338 338 338 339 340 345 349 350 349
357 355 354 356 356 357 357 349 341 352 350 347 339 335 334 332 331 331 331 331 331 331 333 332 332 333 333 334 333 331 331 331 331 331 332 333 332 334 334 335 341 340 347
356 355 354 355 354 353 353 348 349 343 341 338 334 332 331 332 332 332 331 331 331 332 332 332 332 332 332 330 330 329 328 328 327 326 327 328 329 328 328 331 336 337 340
352 349 347 348 346 347 347 342 338 336 334 332 331 332 332 331 332 331 331 330 331 332 331 331 331 331 329 328 327 326 326 326 327 329 330 332 333 332 332 332 333 338 339
350 348 345 344 340 341 338 334 331 331 332 331 331 331 331 331 330 330 329 327 330 330 330 329 328 328 327 326 326 323 326 328 330 332 333 334 333 334 334 334 334 338 338
346 347 341 332 332 332 331 329 330 331 331 331 331 330 330 329 329 328 324 326 328 327 327 328 328 327 326 326 324 326 328 329 329 330 334 332 332 333 333 334 335 336 337
344 340 334 331 330 329 329 329 329 330 331 331 330 330 330 329 328 325 324 326 326 326 327 327 327 326 326 326 323 322 322 321 325 330 332 330 330 330 329 330 331 332 333
340 335 334 332 331 329 330 329 329 329 330 330 330 330 329 328 326 324 324 325 325 325 326 327 327 326 327 326 325 322 320 320 323 330 329 329 326 327 328 330 330 330 333
339 334 334 332 331 331 331 329 329 329 329 330 330 329 329 327 325 324 324 325 324 324 325 327 329 329 328 327 327 324 320 318 319 325 328 325 324 326 328 328 329 330 332
335 335 335 333 333 332 332 331 330 329 329 329 329 329 328 325 325 325 325 324 325 323 323 325 325 328 329 327 326 324 318 316 316 322 322 322 325 328 328 327 326 327 331
338 337 337 336 335 333 333 331 330 329 329 329 329 328 327 325 325 324 324 325 324 321 322 323 323 324 327 326 324 319 315 313 315 321 321 322 324 327 327 326 324 324 326
341 337 334 338 337 335 333 331 329 329 328 328 328 327 325 322 324 325 326 325 323 323 321 320 325 326 326 326 319 314 309 310 315 319 319 320 322 324 324 322 320 322 325
336 338 339 337 337 336 334 330 330 329 329 328 328 325 323 323 323 325 322 322 322 324 323 318 320 321 322 318 316 312 304 310 315 318 319 319 320 320 319 318 316 316 318
340 339 337 335 335 335 333 331 331 330 329 327 326 324 325 325 324 323 322 322 323 324 323 314 314 316 317 317 316 310 304 312 315 318 319 321 319 318 316 318 317 314 315
336 335 334 332 331 332 333 334 331 328 327 326 325 324 325 326 325 325 324 324 323 323 322 315 311 309 308 307 310 304 309 314 316 317 314 314 318 316 313 317 314 312 311
334 334 332 332 334 334 332 330 328 327 326 324 323 322 323 323 323 323 323 323 322 322 323 320 316 311 310 308 304 304 311 313 313 314 315 314 314 313 312 312 311 311 310
333 333 333 332 331 329 328 328 327 326 324 322 321 321 321 320 320 321 320 319 321 321 322 321 319 316 312 310 307 306 308 310 310 311 312 313 314 313 312 312 312 311 311
Wind_Speed
10 10 13 17 17 15 22 20 17 15 18 16 14 14 15 15 13 13 11 15 14 13 14 12 11 13 13 14 13 12 14 14 12 12 13 13 14 16 17 21 21 21 22
7 9 12 16 17 22 18 24 22 20 21 21 17 14 12 10 14 13 11 13 14 12 11 11 12 12 14 12 12 13 12 14 12 5 3 3 5 4 5 8 15 17 17
12 7 9 14 16 17 16 20 22 22 24 23 20 16 12 10 8 13 14 13 11 12 16 14 11 10 11 13 12 11 12 15 15 10 6 1 3 5 4 3 6 8 14
8 4 7 14 16 11 16 16 19 19 19 22 19 17 17 12 9 10 10 8 6 4 4 8 10 9 10 10 11 10 12 13 12 6 8 11 7 1 4 0 6 13 9
12 11 9 13 12 12 14 15 17 18 19 21 19 17 12 9 8 5 4 7 7 10 12 9 6 6 6 6 9 10 10 8 10 10 6 6 8 8 5 4 3 9 10
11 8 12 11 13 16 13 11 11 15 17 17 18 12 8 10 8 5 3 5 5 3 3 2 2 2 3 4 3 4 4 5 6 7 9 8 5 3 4 3 5 7 13
11 8 8 13 16 20 10 10 9 13 17 16 15 11 9 8 5 5 5 5 4 1 7 7 7 6 6 6 6 5 4 4 4 4 4 4 7 8 9 5 5 4 4
10 11 12 15 15 18 14 17 15 13 18 16 13 10 9 8 8 6 6 4 2 1 3 7 9 9 8 7 6 5 5 6 5 5 4 5 7 7 7 6 5 4 3
14 14 16 18 16 17 16 17 17 22 16 15 13 11 9 8 7 8 6 3 1 2 4 7 8 8 7 6 5 4 4 5 5 6 6 5 5 7 7 7 8 4 3
6 7 8 13 16 16 15 10 10 15 17 15 13 12 10 10 8 6 4 1 2 3 3 4 5 6 6 6 5 4 4 4 5 5 4 5 6 6 8 8 6 7 9
9 8 10 16 22 20 20 23 20 18 17 14 12 10 10 8 6 3 2 2 2 2 2 3 4 5 5 6 6 6 7 7 7 6 7 8 9 9 9 8 7 7 8
10 8 11 15 17 21 20 23 22 20 18 14 10 9 9 8 6 2 0 1 2 2 2 3 4 4 6 7 9 11 11 10 10 9 9 9 9 9 9 8 9 10 9
8 6 9 12 18 24 26 26 23 20 17 15 12 11 9 7 4 2 1 2 1 1 0 2 1 3 7 10 13 13 12 9 8 8 8 8 8 8 8 8 9 9 10
13 10 7 10 20 26 27 25 22 21 21 17 13 11 8 6 3 2 4 3 3 2 0 3 3 3 7 11 11 12 9 8 9 9 10 9 7 7 7 7 7 7 9
11 12 10 9 17 24 27 25 23 23 20 17 12 9 8 5 3 3 4 2 2 1 3 2 2 6 6 8 11 12 11 11 10 10 10 12 11 8 6 6 7 8 9
14 12 11 14 19 23 29 26 23 21 18 17 13 10 9 6 3 1 1 1 1 2 2 2 2 3 4 5 8 11 12 12 11 9 9 10 12 13 12 9 7 7 9
16 15 15 19 22 26 31 27 24 22 19 15 12 10 9 5 4 2 2 2 3 5 5 5 4 4 1 3 8 11 12 13 10 9 8 10 13 14 15 12 10 8 4
15 13 16 19 21 26 28 26 23 20 18 15 13 11 8 6 4 3 3 4 4 6 9 6 3 3 3 5 7 9 12 13 10 8 7 11 13 13 12 12 12 13 9
6 12 6 8 24 29 28 26 23 21 18 17 15 11 8 7 6 5 5 6 6 8 7 8 8 7 7 8 8 9 12 13 11 7 7 11 12 10 7 11 13 12 15
26 23 4 15 16 24 26 24 21 17 15 13 13 10 7 7 8 6 5 5 6 9 6 9 10 8 8 8 6 8 12 14 12 7 8 10 10 9 8 10 13 14 11
29 24 28 24 26 28 26 24 21 18 13 12 13 11 9 7 7 7 7 7 6 4 6 8 5 5 7 6 5 9 12 11 9 7 9 8 8 8 8 9 10 10 7
19 19 20 22 27 27 26 21 18 12 10 11 13 10 8 7 6 7 7 8 7 7 7 6 3 2 4 6 6 10 11 7 7 6 6 5 8 11 9 8 10 9 7
13 18 20 24 27 26 24 18 15 14 15 15 13 10 9 8 6 7 6 7 8 9 9 8 8 9 11 12 11 11 8 5 5 5 7 3 5 7 6 3 6 9 9
15 22 24 21 25 21 17 13 15 17 16 13 12 10 9 10 11 11 9 11 12 13 13 12 10 8 8 10 11 8 4 3 2 3 4 5 2 4 6 8 7 9 10
16 21 23 24 21 19 15 14 16 16 15 11 9 9 9 9 11 13 13 15 16 15 15 16 13 10 8 7 5 4 2 2 3 4 3 3 3 3 4 4 5 6 7
20 21 24 22 19 16 15 15 15 14 11 9 10 10 9 9 11 12 12 12 17 17 17 18 16 14 12 9 7 5 5 5 7 7 5 4 4 3 1 1 2 3 3
Wind_Direction
200 204 230 236 216 195 196 210 204 201 204 205 195 201 215 232 242 254 253 247 248 248 247 247 244 249 258 268 258 276 263 278 287 291 306 305 286 271 269 258 258 259 262
237 163 208 209 225 216 192 192 221 216 212 211 212 215 229 244 247 257 251 249 245 242 253 249 248 247 253 263 273 264 262 277 283 272 312 332 322 323 298 260 256 258 262
229 168 208 222 223 230 229 226 212 202 211 207 218 228 247 247 238 237 241 244 242 253 255 258 255 262 249 262 255 267 261 275 270 258 241 296 254 329 347 322 307 277 247
229 208 188 222 230 247 215 204 201 209 206 209 227 228 231 238 241 242 249 255 248 214 254 266 265 269 269 274 272 276 270 280 292 295 258 256 260 244 319 331 302 300 288
209 194 223 222 236 233 194 200 199 210 206 217 216 229 231 226 222 225 267 253 260 260 304 292 276 286 278 284 280 264 264 280 296 296 292 278 271 267 230 294 310 304 288
213 207 215 222 228 229 202 193 201 212 218 214 221 232 210 208 205 216 234 270 257 251 312 60 84 85 53 15 353 306 295 291 289 288 276 261 266 259 227 245 278 263 302
203 195 209 219 219 231 213 185 196 210 221 222 223 214 196 194 192 185 165 135 155 314 337 9 32 25 13 4 2 2 7 5 351 344 336 315 308 298 287 256 268 259 279
200 200 209 218 226 222 212 192 189 185 230 217 207 167 167 166 152 142 152 147 104 104 291 317 332 339 337 329 325 341 353 345 343 353 2 353 348 330 322 284 270 294 267
199 204 203 210 208 218 199 194 201 197 192 165 151 149 150 160 149 135 138 138 148 307 298 310 322 326 333 350 9 10 357 347 353 350 348 355 360 1 346 317 296 256 293
162 175 176 188 207 211 196 175 195 187 167 153 147 142 147 145 142 138 128 90 341 331 341 360 11 9 9 5 8 19 24 11 15 7 357 347 344 338 349 352 326 288 258
160 164 158 167 182 179 172 150 199 177 146 150 140 136 143 146 150 146 78 26 12 22 30 32 25 12 15 26 33 28 14 8 353 341 327 322 321 315 319 326 330 330 296
154 155 149 157 149 153 161 158 153 150 147 150 150 148 154 154 150 154 60 349 339 333 9 13 11 59 37 40 22 8 359 353 347 338 332 330 323 315 310 304 303 311 308
134 134 134 143 141 141 145 149 155 155 156 154 154 157 164 170 168 195 286 294 270 271 60 10 81 65 35 13 1 355 349 354 1 7 360 350 338 338 334 322 316 309 308
163 160 154 159 152 155 157 159 156 155 152 153 158 167 176 186 197 270 292 280 235 226 39 77 68 20 7 6 2 360 11 23 24 23 17 9 355 345 337 331 321 318 319
167 170 162 164 162 161 165 165 157 156 159 156 166 177 176 183 213 295 303 266 211 332 307 293 40 25 12 358 4 20 24 21 19 23 40 44 42 43 21 348 322 308 305
174 175 169 173 172 169 169 168 158 153 165 160 169 176 175 184 210 252 201 220 278 348 5 294 280 352 325 355 15 23 23 19 12 14 33 32 21 17 10 359 344 331 316
182 183 179 182 176 176 173 170 160 154 164 164 169 177 179 200 211 252 218 199 257 294 284 302 270 248 314 6 9 11 10 11 12 19 9 357 3 5 7 13 12 8 16
185 183 178 181 182 180 174 169 165 160 165 168 179 185 190 204 210 228 260 270 273 298 284 305 326 298 307 315 338 354 354 357 2 3 358 348 351 359 6 18 26 34 30
113 95 77 179 186 183 178 173 168 171 175 175 185 193 205 217 218 230 252 270 272 304 289 283 292 282 273 283 302 330 339 343 354 3 8 359 359 2 14 17 20 27 53
103 105 141 216 205 189 183 173 172 175 179 186 197 199 210 225 225 228 231 264 282 300 301 294 276 266 266 260 286 323 334 334 345 1 4 7 8 22 14 9 11 12 18
154 168 185 190 195 195 188 178 175 185 189 192 193 198 216 208 214 225 252 248 281 284 309 342 320 246 247 237 282 325 328 326 332 339 348 1 5 12 16 13 11 16 22
162 143 157 170 188 187 187 177 180 183 196 198 200 208 209 204 212 219 262 250 253 277 294 306 296 242 234 240 280 317 320 316 314 325 344 355 12 26 27 41 46 39 48
124 144 156 168 181 180 181 173 192 197 190 191 207 213 213 220 219 230 233 242 253 270 269 275 271 264 257 264 274 303 311 302 307 320 344 332 11 19 22 41 51 53 55
130 151 153 148 155 161 179 200 192 187 188 200 218 217 230 240 242 248 250 258 263 264 252 259 265 272 276 277 268 285 296 312 314 355 10 355 9 32 71 78 75 59 51
146 152 147 147 157 175 188 198 193 187 198 212 226 229 232 243 255 258 261 258 261 262 258 257 267 271 288 305 286 290 265 333 345 336 331 31 45 49 66 71 50 34 35
152 154 156 162 168 177 184 185 190 197 211 222 230 236 242 268 259 265 273 261 252 256 258 263 264 268 272 289 297 288 260 281 305 287 266 287 292 285 226 322 343 3 8